Regional Weather Roundup
Issued by NWS

Home | Current Version | Previous Version | Graphics & Text | Print | Product List | Glossary On
Versions: 1 2 3 4 5 6 7 8 9 10 11 12 13 14 15 16 17 18 19 20 21 22 23 24 25 26 27 28 29 30 31 32 33 34 35 36 37 38 39 40 41 42 43 44 45 46 47 48 49 50
000
ASUS43 KDMX 240806
RWRIA

WEATHER ROUNDUP FOR IOWA
NATIONAL WEATHER SERVICE DES MOINES IA
300 AM CDT SAT JUN 24 2017

NOTE: "FAIR" INDICATES FEW OR NO CLOUDS BELOW 12,000 FEET WITH NO
SIGNIFICANT WEATHER AND/OR OBSTRUCTIONS TO VISIBILITY.

* - THESE STATIONS ARE NOT NWS STATIONS...THUS NOT UNDER NWS
QUALITY CONTROL.  THEY ALSO DO NOT REPORT WEATHER SUCH
AS PRECIPITATION OR FOG.

IAZ001>003-012>014-020>022-031>034-043>046-240900-
   NORTHWEST IOWA

CITY           SKY/WX    TMP DP  RH WIND       PRES   REMARKS
CARROLL *      CLEAR     52  45  76 W8        30.09R
DENISON *      CLEAR     50  45  81 CALM      30.13S
LE MARS *      CLEAR     50  41  71 CALM      30.13S
ORANGE CITY *  CLEAR     48  45  87 NW6       30.12R
SHELDON *      CLEAR     48  43  81 NW6       30.09S
SIOUX CITY     CLEAR     49  42  77 NW7       30.13R
SPENCER        CLEAR     50  44  80 NW9       30.09R
STORM LAKE *   CLEAR     48  43  81 W10       30.10S
$$

IAZ055>058-069>071-079>083-090>094-240900-
   SOUTHWEST IOWA

CITY           SKY/WX    TMP DP  RH WIND       PRES   REMARKS
ATLANTIC *     CLEAR     57  46  67 NW10      30.11S
AUDUBON *      CLEAR     54  46  76 CALM      30.12R
CLARINDA *       N/A     57  52  82 NE5       30.14R
COUNCIL BLFS * CLEAR     55  45  67 NW5       30.13S
CRESTON *      CLEAR     55  52  88 NW9       30.11R
HARLAN  *      CLEAR     52  46  82 NW10      30.15S
LAMONI         PTCLDY    57  51  80 W7        30.09R
RED OAK *      PTCLDY    57  50  77 NW8       30.12R
SHENANDOAH *   PTCLDY    57  50  77 NW5       30.13R
$$

IAZ047>049-059>061-072>074-084-240900-
   CENTRAL IOWA

CITY           SKY/WX    TMP DP  RH WIND       PRES   REMARKS
AMES           CLEAR     55  52  89 W8        30.05S
ANKENY *       PTCLDY    57  52  82 W8        30.07S
BOONE *        CLEAR     55  50  82 W8        30.06R
CHARITON *     CLEAR     57  52  82 NW8       30.06R
DES MOINES     PTCLDY    57  50  77 W5        30.06R
GRINNELL*      PTCLDY    56  50  80 NW9       30.05R
KNOXVILLE *    CLEAR     55  52  88 W8        30.04R
MARSHALLTOWN   CLEAR     54  51  90 W8        30.02S
NEWTON *       CLEAR     57  50  77 W8        30.05R
PELLA *        CLEAR     58  51  76 NW8       30.05S
PERRY *          N/A     53  50  92 W7        30.08R
$$

IAZ004>006-015-016-023>025-035-036-240900-
   NORTH CENTRAL IOWA

CITY           SKY/WX    TMP DP  RH WIND       PRES   REMARKS
ALGONA *       CLEAR     52  48  87 W9        30.06R
CLARION *        N/A     54  52  94 W9        30.04S
ESTHERVILLE    CLEAR     50  46  86 NW10      30.06R
FORT DODGE *   CLEAR     55  45  67 W3        30.07S
MASON CITY     PTCLDY    53  48  83 W12       30.03S
FOREST CITY *    N/A     50  43  76 W8        30.03R
WEBSTER CITY * CLEAR     54  48  82 W10       30.04R
IOWA FALLS *     N/A     53  50  89 W8        30.05R
$$

IAZ007>011-017>019-026>030-037>042-050>054-066-240900-
   NORTHEAST IOWA

CITY           SKY/WX    TMP DP  RH WIND       PRES   REMARKS
CEDAR RAPIDS   CLEAR     57  54  89 NW10      29.98F
CHARLES CITY * PTCLDY    55  54  94 W8        30.00S
CLINTON *      PTCLDY    58  56  93 W10       29.96R
DECORAH *      PTCLDY    57  52  82 NW5       29.96S
DUBUQUE        PTCLDY    59  52  77 NW15      29.95S
MONTICELLO *   CLEAR     59  54  82 NW12      29.96S
OELWEIN *      PTCLDY    55  54  94 W10       30.00R
WATERLOO       CLEAR     56  50  80 W7        30.00R
$$

IAZ064-065-067-068-078-240900-
   EAST CENTRAL IOWA

CITY           SKY/WX    TMP DP  RH WIND       PRES   REMARKS
DAVENPORT      PTCLDY    60  55  83 NW10      29.97R
IOWA CITY      CLEAR     63  52  67 NW12      30.00S
MT. PLEASANT * CLEAR     61  52  72 NW9       30.01R
MUSCATINE *    PTCLDY    63  54  72 NW10      29.99S
QUAD CITIES    PTCLDY    64  54  69 NW13G23   29.95S
$$

IAZ062-063-075>077-085>089-095>099-240900-
   SOUTHEAST IOWA

CITY           SKY/WX    TMP DP  RH WIND       PRES   REMARKS
BURLINGTON     CLEAR     62  54  74 NW10      30.00R
FAIRFIELD *    PTCLDY    59  50  72 W6        30.02R
FORT MADISON * CLEAR     61  54  77 NW12      30.01S
KEOKUK *       CLEAR     61  54  77 NW9       30.01R
OSKALOOSA *      N/A     56  51  84 NW8       30.04R
CENTERVILLE *    N/A     57  54  88 CALM      30.08R
OTTUMWA        CLEAR     56  52  86 W6        30.03R
WASHINGTON *   PTCLDY    57  54  88 W7        30.02R
$$

ABBREVIATIONS USED IN REMARKS
   TC - TEMPERATURES IN CELSIUS
  WCI - WIND CHILL INDEX
   HX - HEAT INDEX
  VSB - VISIBILITY
$$




USA.gov is the U.S. government's official web portal to all federal, state and local government web resources and services.